ATLAS CENTAUR 2 DEB, 698

Orbit data source: Space-Track

ATLAS CENTAUR 2 DEB, 698 is space debris in LEO originally from a launch on Wed, 27 Nov 1963 UTC launched from the Air Force Eastern Test Range (AFETR). Debris objects in space refer to the collection of defunct objects orbiting the Earth. Examples of debris include non-operational satellites, rocket bodies, and fragments generated from explosions, collisions, or faulty payload assembly.

Loading next visibility...
ATLAS CENTAUR 2 DEB details
Identifier
698, 1963-047D
Orbit
LEO
Last TLE update8 hours ago
Origin
Flag of USNASA LeRC (US)
ManufacturerGD/Convair
MissionSpacecraft
Bus & MotorCENTAUR PART, Unknown motor
MassUnknown
Launch date (UTC)
1963-11-27 (61 years ago)
Launch vehicleUnknown
Launch site
Air Force Eastern Test Range (AFETR)
Object type
Payload
Rocket body
Debris
Shape & HBRUnknown
Radar Cross Section0.300 m², Medium (>0.1 m² and < 1m²)

Expand to show TLE details & history

TLE from 8 hours ago
0 ATLAS CENTAUR 2 DEB
1 00698U 63047D   24356.94104389  .00002678  00000-0  98239-3 0  9998
2 00698  29.9267 298.8994 0534637 290.0618  64.3203 13.72753898  4446
Epoch: 2024-12-21T22:35Z
Definitive object data (Epoch: 2024-12-21T22:35:06.192Z)
Latitude0.00001°
Longitude-130.86137°
Altitude835.233 km
Speed7.514 km/s
True Right ascension19h 55m 35s
True Declination0° 00' 00"
Sunlit
Object was in daylight at TLE epoch
Visualization TLE readout
Latitude9.37243°
Longitude30.85246°
Altitude1,237.732 km
Speed7.115 km/s
Apparent Right ascension08h 36m 06s
Apparent Declination-41° 01' 27"
Sunlit
Object is in full shadow
Visualization observer readout
Local Sidereal Time05:28:34
Azimuth146.57° SSE
Elevation-1.473°
Doppler factor1
Orbital elements
Apogee altitude1,387.582 km
Perigee altitude599.355 km
Semi-major axis7,371.606 km
Eccentricity0.0534637
Inclination29.9267°
RAAN298.8994°
Arg. of periapsis290.0618°
True anomaly69.99681°
Mean anomaly64.3203°
Eccentric anomaly67.14301°
Mean motion3.42926 °/min
BSTAR0.00098239
Orbital period104.98 mins
Loading maneuver chart data...

ATLAS CENTAUR 2 DEB Visibility forecast

Observer location: undefined°, undefined

Span
Click to sort rows by Start time (UTC) header in descending order
Start Az.
Max El. time (UTC)
Max El. Az.
Max El.
End time (UTC)
End Az.
9 mins2024-12-22 23:12:49.253Z193.645° SSW2024-12-22 23:17:49.253Z147.193° SSE18.708°2024-12-22 23:21:49.253Z114.572° SE
13 mins2024-12-23 01:02:49.253Z225.721° WSW2024-12-23 01:08:49.253Z160.249° S30.915°2024-12-23 01:15:49.253Z105.77° ESE
14 mins2024-12-23 02:53:49.253Z245.273° WSW2024-12-23 02:59:49.253Z185.292° SSW33.668°2024-12-23 03:07:49.253Z118.518° SE
12 mins2024-12-23 04:45:49.253Z248.424° W2024-12-23 04:51:49.253Z195.598° SSW26.487°2024-12-23 04:57:49.253Z147.366° SSE
|